Orbital Elements at Epoch 2459200.5 (2020-Dec-17.0) TDB
Reference: JPL 21 (heliocentric ecliptic J2000)
Element | Value | Uncertainty (1-sigma) | Units |
e | .1436613246993107 | 4.4681e-08 | |
a | 3.138275575065665 | 2.4341e-08 | au |
q | 2.68742674868024 | 1.5129e-07 | au |
i | 5.80004354892051 | 4.3852e-06 | deg |
node | 81.04486062037068 | 4.194e-05 | deg |
peri | 29.04482916532352 | 4.5497e-05 | deg |
M | 324.3879189733078 | 1.644e-05 | deg |
tp | 2459401.376852122388 (2021-Jul-05.87685212) | 9.333e-05 | TDB |
period | 2030.649843513976 5.56 | 2.3625e-05 6.468e-08 | d yr |
n | .1772831496034941 | 2.0625e-09 | deg/d |
Q | 3.589124401451089 | 2.7838e-08 | au |
|
| | Orbit Determination Parameters
Additional Information
|